Falls City, NE

5:56 AM CST on February 22, 2017 (GMT -0600)
Brenner

Weather History for KFNB - February, 2013

Change the Weather History Date:

Friday, February 1, 2013

  Actual Average Record
Temperature  
Mean Temperature 12 °F -  
Max Temperature 25 °F 40 °F 71 °F (1989)
Min Temperature 0 °F 17 °F -17 °F (1979)
Degree Days  
Heating Degree Days 52    
Moisture  
Dew Point 5 °F    
Average Humidity 68    
Maximum Humidity 83    
Minimum Humidity 59    
Precipitation  
Precipitation 0.00 in - - ()
Sea Level Pressure  
Sea Level Pressure 30.34 in    
Wind  
Wind Speed 6 mph (South)    
Max Wind Speed 15 mph    
Max Gust Speed 22 mph    
Visibility 10 miles    
Events      
Averages and records for this station are not official NWS values.
T = Trace of Precipitation, MM = Missing Value Source: NWS Daily Summary

Daily Weather History Graph

Daily Weather History Graph

Search for Another Location

Airport or City:

Trip Planner

Search our weather history database for the weather conditions in past years. The results will help you decide how hot, cold, wet, or windy it might be!

Date:

Astronomy

Feb. 01, 2013 Rise Set
Actual Time 7:30 AM CST 5:41 PM CST
Civil Twilight 7:02 AM CST 6:10 PM CST
Nautical Twilight 6:29 AM CST 6:42 PM CST
Astronomical Twilight 5:57 AM CST 7:14 PM CST
Moon 11:50 PM CST (2/1) 10:04 AM CST (2/1)
Length of Visible Light 11h 08m
Length of Day
10h 11m
Waning Gibbous, 70% of the Moon is Illuminated
Feb 1
Waning Gibbous
Feb 3
Last Quarter
Feb 10
New
Feb 17
First Quarter
Feb 25
Full

Hourly Weather History & Observations

Time (CST) Temp. Windchill Dew Point Humidity Pressure Visibility Wind Dir Wind Speed Gust Speed Precip Events Conditions
12:53 AM 1.9 °F -11.8 °F -7.1 °F 66% 30.51 in 10.0 mi West 8.1 mph - N/A   Clear
1:53 AM -0.0 °F -11.6 °F -6.0 °F 76% 30.50 in 10.0 mi WNW 5.8 mph - N/A   Clear
2:53 AM -0.0 °F - -6.0 °F 76% 30.48 in 10.0 mi Calm Calm - N/A   Mostly Cloudy
3:53 AM 1.0 °F - -5.1 °F 75% 30.47 in 10.0 mi Calm Calm - N/A   Overcast
4:53 AM -0.0 °F - -5.1 °F 79% 30.47 in 10.0 mi Calm Calm - N/A   Clear
5:53 AM -0.9 °F - -5.1 °F 83% 30.47 in 10.0 mi Calm Calm - N/A   Clear
6:53 AM 1.0 °F - -5.1 °F 75% 30.48 in 10.0 mi Calm Calm - N/A   Clear
7:53 AM -0.9 °F -11.0 °F -5.1 °F 83% 30.48 in 10.0 mi SSE 4.6 mph - N/A   Clear
8:53 AM 3.0 °F -4.4 °F -2.9 °F 76% 30.46 in 10.0 mi SE 3.5 mph - N/A   Clear
9:53 AM 8.1 °F -6.2 °F -2.9 °F 61% 30.44 in 10.0 mi SSE 10.4 mph - N/A   Clear
10:53 AM 12.9 °F -0.9 °F 1.0 °F 59% 30.41 in 10.0 mi South 11.5 mph - N/A   Clear
11:53 AM 16.0 °F 2.9 °F 5.0 °F 62% 30.38 in 10.0 mi South 11.5 mph - N/A   Partly Cloudy
12:53 PM 21.0 °F 8.6 °F 10.0 °F 63% 30.33 in 10.0 mi South 12.7 mph - N/A   Overcast
1:53 PM 23.0 °F 10.1 °F 10.9 °F 60% 30.30 in 10.0 mi South 15.0 mph 21.9 mph N/A   Overcast
2:53 PM 24.1 °F 11.5 °F 12.0 °F 60% 30.26 in 10.0 mi South 15.0 mph 21.9 mph N/A   Overcast
3:53 PM 25.0 °F 13.6 °F 14.0 °F 63% 30.23 in 10.0 mi South 12.7 mph - N/A   Partly Cloudy
4:53 PM 25.0 °F 17.1 °F 14.0 °F 63% 30.20 in 10.0 mi South 6.9 mph 18.4 mph N/A   Mostly Cloudy
5:53 PM 25.0 °F 18.1 °F 14.0 °F 63% 30.19 in 10.0 mi South 5.8 mph - N/A   Clear
6:53 PM 24.1 °F 16.0 °F 14.0 °F 65% 30.20 in 10.0 mi South 6.9 mph - N/A   Clear
7:53 PM 24.1 °F 15.2 °F 14.0 °F 65% 30.18 in 10.0 mi South 8.1 mph - N/A   Clear
8:53 PM 24.1 °F 14.4 °F 15.1 °F 69% 30.18 in 10.0 mi South 9.2 mph - N/A   Scattered Clouds
9:53 PM 25.0 °F 16.3 °F 14.0 °F 63% 30.17 in 10.0 mi South 8.1 mph - N/A   Mostly Cloudy
10:53 PM 25.0 °F 17.1 °F 15.1 °F 66% 30.15 in 10.0 mi South 6.9 mph - N/A   Overcast
11:53 PM 25.0 °F 17.1 °F 15.1 °F 66% 30.14 in 10.0 mi SSW 6.9 mph - N/A   Mostly Cloudy